Weather History for White Mountain, AK

Change the Weather History Date:

Sunday, December 2, 2012

  Actual Average (PAKK) Record (PAKK)
Temperature  
Mean Temperature 6 °F -  
Max Temperature 10 °F 10 °F 30 °F (2006)
Min Temperature 0 °F 2 °F -18 °F (2003)
Degree Days  
Heating Degree Days 60    
Moisture  
Dew Point 0 °F    
Average Humidity 81    
Maximum Humidity 88    
Minimum Humidity 73    
Precipitation  
Precipitation 0.00 in - - ()
Sea Level Pressure  
Sea Level Pressure 30.12 in    
Wind  
Wind Speed 13 mph ()    
Max Wind Speed 24 mph    
Max Gust Speed 22 mph    
Visibility 8.5 miles    
Events      
Averages and records for this station are not official NWS values.
T = Trace of Precipitation, MM = Missing Value Source: Averaged Metar Reports

Daily Weather History Graph

Daily Weather History Graph

Search for Another Location

Airport:

Trip Planner

Search our weather history database for the weather conditions in past years. The results will help you decide how hot, cold, wet, or windy it might be!

Date:

Astronomy

Dec. 02, 2012 Rise Set
Actual Time 11:24 AM AKST 4:01 PM AKST
Civil Twilight 10:09 AM AKST 5:17 PM AKST
Nautical Twilight 9:01 AM AKST 6:25 PM AKST
Astronomical Twilight 8:01 AM AKST 7:25 PM AKST
Moon 8:59 PM AKST (12/2) 1:29 PM AKST (12/2)
Length of Visible Light 7h 07m
Length of Day
4h 37m
Waning Gibbous, 84% of the Moon is Illuminated
Dec 2
Waning Gibbous
Dec 6
Last Quarter
Dec 12
New
Dec 19
First Quarter
Dec 28
Full

Hourly Weather History & Observations

Time (AKST) Temp. Windchill Dew Point Humidity Pressure Visibility Wind Dir Wind Speed Gust Speed Precip Events Conditions
12:58 AM 10.0 °F -7.6 °F 7.0 °F 87% 30.03 in 9.0 mi North 17.3 mph - N/A   Clear
1:58 AM 9.0 °F -5.9 °F 6.1 °F 88% 30.02 in 10.0 mi North 11.5 mph - N/A   Clear
3:58 AM 8.1 °F -10.7 °F 3.9 °F 83% 30.03 in 9.0 mi NNW 18.4 mph - N/A   Clear
4:58 AM 8.1 °F -13.0 °F 3.0 °F 80% 30.04 in 9.0 mi NNW 24.2 mph - N/A   Clear
5:58 AM 7.0 °F -10.4 °F 1.9 °F 80% 30.05 in 10.0 mi NNW 15.0 mph 21.9 mph 0.00 in   Clear
6:58 AM 6.1 °F -9.5 °F 1.0 °F 80% 30.06 in 10.0 mi NNW 11.5 mph - N/A   Clear
7:58 AM 6.1 °F -13.8 °F 1.0 °F 80% 30.07 in 9.0 mi NNW 19.6 mph - N/A   Clear
8:58 AM 5.0 °F -15.2 °F -0.0 °F 80% 30.07 in 9.0 mi NNW 19.6 mph - N/A   Clear
9:58 AM 6.1 °F -10.9 °F -0.0 °F 76% 30.09 in 9.0 mi NNW 13.8 mph - N/A   Clear
10:58 AM 5.0 °F -11.6 °F 1.0 °F 84% 30.12 in 8.0 mi North 12.7 mph - N/A   Clear
11:58 AM 5.0 °F -9.1 °F -0.0 °F 80% 30.12 in 8.0 mi NW 9.2 mph - N/A   Clear
12:58 PM 7.0 °F -10.4 °F 1.0 °F 77% 30.12 in 8.0 mi NNW 15.0 mph - N/A   Clear
1:58 PM 7.0 °F -11.6 °F 1.0 °F 77% 30.12 in 7.0 mi NNW 17.3 mph - N/A   Clear
2:58 PM 5.0 °F -11.6 °F -0.0 °F 80% 30.13 in 7.0 mi NNW 12.7 mph - N/A   Clear
3:58 PM 3.9 °F -15.6 °F -0.0 °F 84% 30.13 in 7.0 mi NNW 17.3 mph - N/A   Clear
4:58 PM 3.0 °F -17.3 °F -0.9 °F 84% 30.14 in 7.0 mi NNW 18.4 mph - N/A   Clear
5:58 PM 3.0 °F -14.8 °F -0.9 °F 84% 30.17 in 8.0 mi NW 13.8 mph - N/A   Clear
6:58 PM 1.9 °F -9.2 °F -0.9 °F 88% 30.18 in 8.0 mi WNW 5.8 mph - N/A   Clear
7:58 PM 3.0 °F - -0.9 °F 84% 30.19 in 8.0 mi Calm Calm - N/A   Clear
8:58 PM 3.9 °F -10.4 °F -2.0 °F 76% 30.20 in 9.0 mi North 9.2 mph 17.3 mph N/A   Clear
9:58 PM 3.0 °F -11.5 °F -2.9 °F 76% 30.23 in 9.0 mi NNE 9.2 mph - N/A   Clear
10:58 PM 3.0 °F -9.3 °F -4.0 °F 73% 30.24 in 9.0 mi NW 6.9 mph - N/A   Clear
11:58 PM -0.0 °F -15.3 °F -5.1 °F 79% 30.26 in 9.0 mi NNW 9.2 mph - N/A   Clear